Flag for Germany Weather past 2 weeks in Viersen, North Rhine-Westphalia, Germany

Now
75 °F

Passing clouds.


Feels Like: 76 °F
Forecast: 64 / 78 °F
Wind: 9 mph from West

Location: Monchengladbach Airport

Current Time: Jul 28, 2014 at 4:41:08 PM

Latest Report: Jul 28, 2014 at 4:20 PM


Visibility: 4 mi

Pressure: 29.83 "Hg

Humidity: 78%

Dew point: 68 °F

Location of ViersenLocation

Historic Weather in Viersen — Graph

°F

Viersen temperature yesterday

Maximum temperature yesterday: 79 °F (at 6:50 PM)
Minimum temperature yesterday: 64 °F (at 7:50 AM)
Average temperature yesterday: 73 °F

Past Weeks' High & Low Weather Summary

 TemperatureHumidityPressure
High91 °F (Jul 19, 4:50 PM)100% (Jul 13, 5:20 PM)30.18 "Hg (Jul 13, 5:20 PM)
Low59 °F (Jul 14, 7:50 AM)29% (Jul 19, 12:50 PM)29.71 "Hg (Jul 13, 6:20 PM)
Average74 °F68%29.97 "Hg
* Reported Jul 13 3:20 PM — Jul 28 3:20 PM, Viersen, Weather by CustomWeather, © 2014

Note: Actual official high and low records may vary slightly from our data, if they occured in-between our weather recording intervals... More about our weather records

Advertising

Viersen weather history for previous 24 hours

 ConditionsComfort  
Time TempWeatherWind HumidityBarometerVisibility
3:20 PM
Jul 28
72 °FPassing clouds.10 mph88%29.83 "HgN/A
2:50 PM70 °FPassing clouds.6 mph78%29.83 "HgN/A
2:20 PM72 °FPartly cloudy.6 mph73%29.83 "HgN/A
1:50 PM70 °FThundershowers. Passing clouds.7 mph73%29.83 "HgN/A
1:20 PM79 °FScattered clouds.8 mph54%29.83 "HgN/A
12:50 PM79 °FScattered clouds.7 mph58%29.83 "HgN/A
12:20 PM79 °FScattered clouds.7 mph61%29.83 "HgN/A
11:50 AM77 °FPassing clouds.6 mph65%29.83 "HgN/A
11:20 AM75 °FSunny.7 mph65%29.86 "Hg10 mi
10:50 AM75 °FPassing clouds.6 mph69%29.86 "HgN/A
10:20 AM73 °FPassing clouds.7 mph74%29.86 "HgN/A
9:50 AM72 °FSunny.7 mph78%29.86 "Hg10 mi
9:20 AM72 °FScattered clouds.6 mph78%29.86 "HgN/A
8:50 AM70 °FScattered clouds.6 mph83%29.89 "Hg5 mi
8:20 AM68 °FScattered clouds.2 mph88%29.89 "Hg5 mi
7:50 AM66 °FBroken clouds.No wind94%29.89 "Hg4 mi
8:20 PM
Jul 27
75 °FClear.No wind69%29.95 "Hg10 mi
7:50 PM77 °FClear.1 mph61%29.95 "Hg10 mi
7:20 PM77 °FClear.3 mph57%29.95 "Hg10 mi
6:50 PM79 °FPassing clouds.5 mph54%29.95 "HgN/A
6:20 PM77 °FClear.5 mph57%29.95 "Hg10 mi
5:50 PM77 °FPassing clouds.5 mph57%29.98 "HgN/A
5:20 PM77 °FPassing clouds.6 mph57%29.98 "HgN/A
4:20 PM77 °FPassing clouds.6 mph57%29.98 "HgN/A
Weather by CustomWeather, © 2014

See weather overviewHow to use our weather pages